{"data":{"norad_id":57443,"epoch":"2026-09-20T00:28:30.831456Z","epoch_age_seconds":169419,"freshness":"FRESH","line1":"1 57443U 23105P   26263.01980129  .00000924  00000+0  43090-4 0  9997","line2":"2 57443  43.0018 242.2442 0001368 271.6759  88.3936 15.27576468175300","mean_motion":15.27576468,"eccentricity":0.0001368,"inclination_deg":43.0018,"raan_deg":242.2442,"arg_perigee_deg":271.6759,"mean_anomaly_deg":88.3936,"bstar":4.309e-5,"rev_number":17530,"period_min":94.266966673383,"perigee_km":482.12106043391,"apogee_km":483.99828384341,"semimajor_km":6861.1966721387,"source":"CELESTRAK","updated_at":"2026-09-21T09:00:33.626797Z"}}